星链-36504(STARLINK-36504)

导读 | 豆包AI

STARLINK-36504是美国SpaceX星链互联网星座的卫星,于2026年1月14日发射入轨,属于低轨卫星。星链项目旨在为全球提供高速低延迟互联网覆盖,这类卫星通过大规模组网,服务偏远地区网络接入,同时支持民用与部分特殊场景通信,该卫星进一步扩充了星链星座的在轨规模。

基本信息
目录编号:
67462
目录名称:
STARLINK-36504
国际标识:
2026-008T
轨道中心:
EARTH
卫星名称:
星链-36504
卫星全名:
星链-36504(STARLINK-36504)
卫星状态:
在轨 (已飞行131 天)
发射日期:
2026-01-14 UTC
国别 :
美国 (US)
星等 :
--
轨道信息
数据来源 国际轨道数据
星历时间: 2026-05-25T08:02:10+0800
9小时前
查看轨道信息
半长轴: 6861.151km
偏心率: 0.0000759
轨道倾角: 43.001°
近地点辐角 264.863°
升交点赤经 134.205°
平近点角 95.214°
近地点: 482.493km
远地点: 483.535km
周期: 94.266分钟
每日圈数: 15.275918
详细信息
固有亮度:
5
最大亮度:
2.5
卫星平台:
Starlink V1.0
覆盖范围:
全球
运营商:
太空探索技术公司
运营商所在国:
美国
制造商(研发单位):
太空探索技术公司
制造商所在国:
美国
使用方式:
暂无
卫星简介
Starlink 计划是 SpaceX 推出的全球卫星互联网项目,通过发射低轨道卫星,为全球尤其是偏远地区提供高速、低延迟的互联网服务。自 2019 年起,Starlink 已部署数千颗卫星,旨在缩小全球数字鸿沟,推动互联网普及。该项目还为军事、航空等行业提供通信支持,带来广泛经济效益。
2D轨道图
3D轨道图
轨道高度分析图
轨道倾角分析图
轨道综合分析图
查看轨道综合分析图